FW4235 Weather Reports


time (UTC)temp
C
wind
direction
speed
KPH
gust
KPH
rain 1hr
cm
rain 24hr
cm
rain mn
cm
humidity
%
barometer
mb
20260508020508 17 62 0.0 0.0 0.00 0.00 0.00 50 1014.7
20260508020008 17 5 0.0 0.0 0.00 0.00 0.00 50 1014.7
20260508015508 17 5 0.0 0.0 0.00 0.00 0.00 51 1014.8
20260508015007 17 36 0.0 0.0 0.00 0.00 0.00 51 1014.8
20260508014507 17 36 0.0 0.0 0.00 0.00 0.00 51 1014.8
20260508014007 17 36 0.0 0.0 0.00 0.00 0.00 51 1014.9
20260508013508 17 45 0.0 0.0 0.00 0.00 0.00 51 1015.0
20260508013008 17 46 0.0 0.0 0.00 0.00 0.00 51 1015.0
20260508012507 17 44 0.0 0.0 0.00 0.00 0.00 51 1015.1
20260508012007 17 44 0.0 0.0 0.00 0.00 0.00 52 1015.1
20260508011507 17 86 0.0 0.0 0.00 0.00 0.00 52 1015.1
20260508011008 17 133 0.0 0.0 0.00 0.00 0.00 52 1015.2
20260508010508 17 140 0.0 0.0 0.00 0.00 0.00 53 1015.3
20260508010008 17 221 0.0 0.0 0.00 0.00 0.00 52 1015.3
20260508005507 17 191 0.0 0.0 0.00 0.00 0.00 53 1015.3
20260508005008 17 194 0.0 0.0 0.00 0.00 0.00 53 1015.4
20260508004508 17 64 0.0 0.0 0.00 0.00 0.00 53 1015.5
20260508004008 17 64 0.0 0.0 0.00 0.00 0.00 54 1015.4
20260508003507 17 12 0.0 0.0 0.00 0.00 0.00 55 1015.4
20260508003007 17 22 0.0 0.0 0.00 0.00 0.00 57 1015.3
20260508002507 17 23 0.0 0.0 0.00 0.00 0.00 59 1015.3
20260508002007 17 26 0.0 0.0 0.00 0.00 0.00 60 1015.3
20260508001507 17 27 0.0 0.0 0.00 0.00 0.00 61 1015.4
20260508000507 17 25 0.0 0.0 0.00 0.00 0.00 63 1015.4
20260508000007 17 31 0.0 0.0 0.00 0.00 0.00 63 1015.5
20260507235507 17 13 0.0 0.0 0.00 0.00 0.00 63 1015.7
20260507235007 17 13 0.0 0.0 0.00 0.00 0.00 63 1015.7
20260507234507 17 13 0.0 0.0 0.00 0.00 0.00 63 1015.8
20260507234007 17 5 0.0 0.0 0.00 0.00 0.00 62 1016.0
20260507233007 17 5 0.0 0.0 0.00 0.00 0.00 62 1016.1
20260507232507 17 5 0.0 0.0 0.00 0.00 0.00 62 1016.2
20260507231507 17 5 0.0 0.0 0.00 0.00 0.00 62 1016.1
20260507231007 17 5 0.0 0.0 0.00 0.00 0.00 62 1016.0
20260507230507 17 5 0.0 0.0 0.00 0.00 0.00 61 1015.9
20260507230008 17 5 0.0 0.0 0.00 0.00 0.00 61 1016.0
20260507225507 17 5 0.0 0.0 0.00 0.00 0.00 61 1016.1
20260507225007 17 5 0.0 0.0 0.00 0.00 0.00 61 1016.2
20260507224008 17 5 0.0 0.0 0.00 0.00 0.00 60 1016.3
20260507223508 17 5 0.0 0.0 0.00 0.00 0.00 60 1016.3
20260507223008 17 337 0.0 0.0 0.00 0.00 0.00 60 1016.4
20260507222507 17 336 0.0 0.0 0.00 0.00 0.00 59 1016.4
20260507222007 17 252 0.0 0.0 0.00 0.00 0.00 59 1016.4
20260507221507 17 248 0.0 0.0 0.00 0.00 0.00 58 1016.4
20260507221008 17 248 0.0 0.0 0.00 0.00 0.00 57 1016.5
20260507220509 17 248 0.0 0.0 0.00 0.00 0.00 56 1016.5
20260507220007 17 248 0.0 0.0 0.00 0.00 0.00 56 1016.5
20260507215509 17 248 0.0 0.0 0.00 0.00 0.00 55 1016.6
20260507215008 17 248 0.0 0.0 0.00 0.00 0.00 54 1016.8
20260507214007 18 248 0.0 0.0 0.00 0.00 0.00 52 1016.9
20260507213008 18 248 0.0 0.0 0.00 0.00 0.00 50 1016.9
20260507212507 18 248 0.0 0.0 0.00 0.00 0.00 50 1016.9
20260507211507 18 248 0.0 0.0 0.00 0.00 0.00 50 1016.9
20260507211008 18 248 0.0 0.0 0.00 0.00 0.00 49 1017.0
20260507205507 18 272 0.0 0.0 0.00 0.00 0.00 48 1016.9
20260507204507 18 244 0.0 0.0 0.00 0.00 0.00 47 1016.8
20260507204007 18 242 0.0 0.0 0.00 0.00 0.00 47 1016.8
20260507203508 18 243 0.0 0.0 0.00 0.00 0.00 46 1016.8
20260507202507 18 284 0.0 0.0 0.00 0.00 0.00 44 1016.8
20260507202007 18 250 0.0 0.0 0.00 0.00 0.00 43 1017.0
20260507201007 19 240 0.0 0.0 0.00 0.00 0.00 41 1016.9
20260507200507 19 247 0.0 0.0 0.00 0.00 0.00 40 1016.9
20260507200007 19 253 0.0 0.0 0.00 0.00 0.00 40 1016.7
20260507195508 19 322 0.0 0.0 0.00 0.00 0.00 38 1016.6
20260507195007 19 323 0.0 0.0 0.00 0.00 0.00 38 1016.7
20260507194008 19 323 0.0 0.0 0.00 0.00 0.00 38 1016.7
20260507192507 18 225 0.0 0.0 0.00 0.00 0.00 39 1016.7
20260507191507 19 36 0.0 0.0 0.00 0.00 0.00 42 1016.6
20260507191008 19 54 0.0 0.0 0.00 0.00 0.00 42 1016.6
20260507190507 19 57 0.0 0.0 0.00 0.00 0.00 43 1016.5
20260507190007 18 47 0.0 0.0 0.00 0.00 0.00 43 1016.5
20260507185008 18 328 0.0 0.0 0.00 0.00 0.00 43 1016.7
20260507184507 18 346 0.0 0.0 0.00 0.00 0.00 44 1016.7
20260507184007 18 287 0.0 0.0 0.00 0.00 0.00 45 1016.5
20260507183507 18 255 0.0 0.0 0.00 0.00 0.00 45 1016.5
20260507183008 19 255 0.0 0.0 0.00 0.00 0.00 45 1016.5
20260507182507 19 255 0.0 0.0 0.00 0.00 0.00 46 1016.5
20260507182007 19 255 0.0 0.0 0.00 0.00 0.00 45 1016.5
20260507181507 19 246 0.0 0.0 0.00 0.00 0.00 45 1016.6
20260507181007 19 246 0.0 0.0 0.00 0.00 0.00 44 1016.6
20260507180507 19 251 0.0 0.0 0.00 0.00 0.00 44 1016.5
20260507180007 20 150 0.0 0.0 0.00 0.00 0.00 44 1016.4
20260507175507 20 150 0.0 0.0 0.00 0.00 0.00 44 1016.4
20260507175007 20 150 0.0 0.0 0.00 0.00 0.00 43 1016.5
20260507174507 20 150 0.0 0.0 0.00 0.00 0.00 42 1016.2
20260507174007 20 245 0.0 0.0 0.00 0.00 0.00 40 1016.2
20260507173507 20 256 0.0 0.0 0.00 0.00 0.00 41 1016.2
20260507173007 20 232 0.0 0.0 0.00 0.00 0.00 41 1016.4
20260507172007 20 278 0.0 0.0 0.00 0.00 0.00 42 1016.4
20260507171507 20 290 0.0 0.0 0.00 0.00 0.00 42 1016.4
20260507171008 20 146 0.0 0.0 0.00 0.00 0.00 42 1016.3
20260507170507 20 145 0.0 0.0 0.00 0.00 0.00 43 1016.2
20260507170007 20 102 0.0 0.0 0.00 0.00 0.00 43 1016.1
20260507165507 20 104 0.0 0.0 0.00 0.00 0.00 43 1015.9
20260507165007 20 102 0.0 0.0 0.00 0.00 0.00 44 1015.8
20260507164507 20 109 0.0 0.0 0.00 0.00 0.00 44 1015.8
20260507164008 20 81 0.0 0.0 0.00 0.00 0.00 43 1015.7
20260507163007 21 107 0.0 0.0 0.00 0.00 0.00 44 1015.8
20260507162507 21 138 0.0 0.0 0.00 0.00 0.00 44 1015.8
20260507162007 21 148 0.0 0.0 0.00 0.00 0.00 44 1015.8
20260507161007 21 109 0.0 0.0 0.00 0.00 0.00 41 1015.9
20260507160507 21 74 0.0 0.0 0.00 0.00 0.00 40 1015.8
20260507155507 21 129 0.0 0.0 0.00 0.00 0.00 39 1016.0
20260507155007 21 107 0.0 0.0 0.00 0.00 0.00 39 1016.0
20260507154507 21 126 0.0 0.0 0.00 0.00 0.00 38 1016.0
20260507154009 22 139 0.0 0.0 0.00 0.00 0.00 38 1016.0
20260507153507 22 134 0.0 0.0 0.00 0.00 0.00 37 1016.0
20260507153007 22 171 0.0 0.0 0.00 0.00 0.00 37 1016.2
20260507152507 22 170 0.0 0.0 0.00 0.00 0.00 36 1016.4
20260507152007 22 207 0.0 0.0 0.00 0.00 0.00 37 1016.5
20260507151507 22 233 0.0 0.0 0.00 0.00 0.00 36 1016.4
20260507151008 22 223 0.0 0.0 0.00 0.00 0.00 35 1016.3
20260507150507 22 194 0.0 0.0 0.00 0.00 0.00 34 1016.3
20260507145507 21 190 0.0 0.0 0.00 0.00 0.00 38 1016.3
20260507145007 21 185 0.0 0.0 0.00 0.00 0.00 36 1016.3
20260507144007 22 185 0.0 0.0 0.00 0.00 0.00 34 1016.3
20260507143507 22 195 0.0 0.0 0.00 0.00 0.00 34 1016.3
20260507143007 22 202 0.0 0.0 0.00 0.00 0.00 35 1016.2
20260507142507 22 179 0.0 0.0 0.00 0.00 0.00 34 1016.2
20260507142007 22 192 0.0 0.0 0.00 0.00 0.00 32 1016.2
20260507141507 22 206 0.0 0.0 0.00 0.00 0.00 32 1016.2
20260507141007 22 201 0.0 0.0 0.00 0.00 0.00 33 1016.1
20260507140007 23 181 0.0 0.0 0.00 0.00 0.00 32 1015.9
20260507135506 23 171 0.0 0.0 0.00 0.00 0.00 34 1015.8
20260507135007 23 212 0.0 0.0 0.00 0.00 0.00 35 1015.9
20260507134507 23 174 0.0 0.0 0.00 0.00 0.00 34 1015.9
20260507134007 23 188 0.0 0.0 0.00 0.00 0.00 34 1015.7
20260507133507 22 185 0.0 0.0 0.00 0.00 0.00 36 1015.8
20260507133007 22 178 0.0 0.0 0.00 0.00 0.00 34 1015.7
20260507132507 23 168 0.0 0.0 0.00 0.00 0.00 36 1015.7
20260507132007 23 181 0.0 0.0 0.00 0.00 0.00 38 1015.6
20260507131507 22 175 0.0 0.0 0.00 0.00 0.00 40 1015.6
20260507131007 23 173 0.0 0.0 0.00 0.00 0.00 39 1015.6
20260507130507 22 177 0.0 0.0 0.00 0.00 0.00 41 1015.7
20260507130007 22 147 0.0 0.0 0.00 0.00 0.00 41 1015.7
20260507125507 22 185 0.0 0.0 0.00 0.00 0.00 41 1015.9
20260507124507 22 165 0.0 0.0 0.00 0.00 0.00 39 1016.0
20260507124007 22 199 0.0 0.0 0.00 0.00 0.00 37 1016.1
20260507123507 22 183 0.0 0.0 0.00 0.00 0.00 34 1016.1
20260507123007 23 171 0.0 0.0 0.00 0.00 0.00 35 1016.1
20260507122507 23 163 0.0 0.0 0.00 0.00 0.00 33 1016.1
20260507122007 23 161 0.0 0.0 0.00 0.00 0.00 36 1016.2
20260507121507 23 166 0.0 0.0 0.00 0.00 0.00 36 1016.3
20260507121007 23 176 0.0 0.0 0.00 0.00 0.00 34 1016.2
20260507120507 23 177 0.0 0.0 0.00 0.00 0.00 34 1016.3
20260507115507 23 200 0.0 0.0 0.00 0.00 0.00 36 1016.2
20260507115007 23 201 0.0 0.0 0.00 0.00 0.00 37 1016.2
20260507114506 23 175 0.0 0.0 0.00 0.00 0.00 37 1016.2
20260507113507 23 196 0.0 0.0 0.00 0.00 0.00 37 1016.3
20260507113007 23 186 0.0 0.0 0.00 0.00 0.00 39 1016.3
20260507112507 23 197 0.0 0.0 0.00 0.00 0.00 40 1016.2
20260507112007 24 184 0.0 0.0 0.00 0.00 0.00 37 1016.3
20260507111507 24 180 0.0 0.0 0.00 0.00 0.00 36 1016.5
20260507110507 24 190 0.0 0.0 0.00 0.00 0.00 35 1016.3
20260507110007 24 183 0.0 0.0 0.00 0.00 0.00 32 1016.2
20260507105507 24 167 0.0 0.0 0.00 0.00 0.00 34 1016.2
20260507105007 24 173 0.0 0.0 0.00 0.00 0.00 32 1016.3
20260507104507 24 211 0.0 0.0 0.00 0.00 0.00 32 1016.3
20260507104007 25 207 0.0 0.0 0.00 0.00 0.00 32 1016.2
20260507103507 24 195 0.0 0.0 0.00 0.00 0.00 33 1016.2
20260507103007 24 187 0.0 0.0 0.00 0.00 0.00 36 1016.1
20260507102506 25 190 0.0 0.0 0.00 0.00 0.00 34 1015.9
20260507102007 25 196 0.0 0.0 0.00 0.00 0.00 29 1015.9
20260507101507 25 206 0.0 0.0 0.00 0.00 0.00 34 1015.9
20260507101007 25 173 0.0 0.0 0.00 0.00 0.00 33 1015.9
20260507100506 25 172 0.0 0.0 0.00 0.00 0.00 30 1016.0
20260507100007 25 193 0.0 0.0 0.00 0.00 0.00 29 1016.0
20260507095506 25 159 0.0 0.0 0.00 0.00 0.00 29 1016.1
20260507095007 25 204 0.0 0.0 0.00 0.00 0.00 30 1016.1
20260507094506 25 206 0.0 0.0 0.00 0.00 0.00 33 1016.0
20260507094007 25 256 0.0 0.0 0.00 0.00 0.00 31 1015.9
20260507093507 25 215 0.0 0.0 0.00 0.00 0.00 29 1016.0
20260507093007 25 204 0.0 0.0 0.00 0.00 0.00 30 1016.0
20260507092506 24 159 0.0 0.0 0.00 0.00 0.00 32 1016.0
20260507092007 24 214 0.0 0.0 0.00 0.00 0.00 33 1016.0
20260507091507 24 186 0.0 0.0 0.00 0.00 0.00 36 1016.1
20260507091007 25 198 0.0 0.0 0.00 0.00 0.00 36 1016.1
20260507090507 24 165 0.0 0.0 0.00 0.00 0.00 37 1016.0
20260507090007 24 167 0.0 0.0 0.00 0.00 0.00 38 1015.9
20260507085506 24 206 0.0 0.0 0.00 0.00 0.00 41 1015.8
20260507085007 24 202 0.0 0.0 0.00 0.00 0.00 42 1015.7
20260507084506 23 96 0.0 0.0 0.00 0.00 0.00 42 1015.8
20260507084007 23 166 0.0 0.0 0.00 0.00 0.00 43 1016.0
20260507083507 23 218 0.0 0.0 0.00 0.00 0.00 45 1016.0
20260507083007 23 271 0.0 0.0 0.00 0.00 0.00 45 1015.9
20260507082507 22 237 0.0 0.0 0.00 0.00 0.00 45 1015.9
20260507082007 23 220 0.0 0.0 0.00 0.00 0.00 45 1015.9
20260507081506 22 212 0.0 0.0 0.00 0.00 0.00 46 1015.8
20260507081006 22 181 0.0 0.0 0.00 0.00 0.00 46 1015.8
20260507080506 23 245 0.0 0.0 0.00 0.00 0.00 46 1015.9
20260507075507 23 329 0.0 0.0 0.00 0.00 0.00 47 1015.9
20260507075007 23 253 0.0 0.0 0.00 0.00 0.00 48 1015.9
20260507074507 22 161 0.0 0.0 0.00 0.00 0.00 47 1015.8
20260507074007 23 235 0.0 0.0 0.00 0.00 0.00 48 1015.7
20260507073507 22 157 0.0 0.0 0.00 0.00 0.00 49 1015.7
20260507073007 22 150 0.0 0.0 0.00 0.00 0.00 49 1015.5
20260507072507 22 155 0.0 0.0 0.00 0.00 0.00 48 1015.5
20260507071506 22 165 0.0 0.0 0.00 0.00 0.00 48 1015.6
20260507070011 21 166 0.0 0.0 0.00 0.00 0.00 50 1015.7
20260507065507 21 191 0.0 0.0 0.00 0.00 0.00 50 1015.8
20260507065007 21 212 0.0 0.0 0.00 0.00 0.00 50 1015.8
20260507064507 21 164 0.0 0.0 0.00 0.00 0.00 50 1015.8
20260507064007 21 212 0.0 0.0 0.00 0.00 0.00 49 1015.8
20260507063507 21 245 0.0 0.0 0.00 0.00 0.00 51 1015.7
20260507063007 20 243 0.0 0.0 0.00 0.00 0.00 50 1015.7
20260507062506 20 275 0.0 0.0 0.00 0.00 0.00 51 1015.7
20260507062007 20 267 0.0 0.0 0.00 0.00 0.00 52 1015.7
20260507061507 20 238 0.0 0.0 0.00 0.00 0.00 52 1015.6
20260507061007 20 233 0.0 0.0 0.00 0.00 0.00 52 1015.5
20260507060507 20 245 0.0 0.0 0.00 0.00 0.00 52 1015.5
20260507060006 20 248 0.0 0.0 0.00 0.00 0.00 52 1015.4
20260507055007 20 250 0.0 0.0 0.00 0.00 0.00 55 1015.3
20260507054507 19 142 0.0 0.0 0.00 0.00 0.00 55 1015.3
20260507054007 19 106 0.0 0.0 0.00 0.00 0.00 56 1015.2
20260507053507 18 106 0.0 0.0 0.00 0.00 0.00 58 1015.1
20260507053007 18 106 0.0 0.0 0.00 0.00 0.00 58 1015.1
20260507052507 18 76 0.0 0.0 0.00 0.00 0.00 61 1015.0
20260507052007 18 76 0.0 0.0 0.00 0.00 0.00 62 1014.9
20260507051007 17 79 0.0 0.0 0.00 0.00 0.00 67 1015.0
20260507050507 17 65 0.0 0.0 0.00 0.00 0.00 69 1014.9
20260507050007 17 67 0.0 0.0 0.00 0.00 0.00 70 1015.0
20260507045507 17 67 0.0 0.0 0.00 0.00 0.00 70 1015.0
20260507045007 17 53 0.0 0.0 0.00 0.00 0.00 70 1015.0
20260507044506 17 52 0.0 0.0 0.00 0.00 0.00 69 1015.0
20260507044007 16 52 0.0 0.0 0.00 0.00 0.00 68 1015.0
20260507043507 16 40 0.0 0.0 0.00 0.00 0.00 67 1015.0
20260507042507 15 39 0.0 0.0 0.00 0.00 0.00 65 1014.9
20260507041506 15 25 0.0 0.0 0.00 0.00 0.00 64 1014.9
20260507041007 15 46 0.0 0.0 0.00 0.00 0.00 64 1015.0
20260507040507 15 46 0.0 0.0 0.00 0.00 0.00 63 1015.1
20260507040007 15 46 0.0 0.0 0.00 0.00 0.00 64 1015.0
20260507035506 15 46 0.0 0.0 0.00 0.00 0.00 64 1015.0
20260507035007 15 46 0.0 0.0 0.00 0.00 0.00 63 1015.0
20260507034506 15 46 0.0 0.0 0.00 0.00 0.00 63 1015.0
20260507034006 15 46 0.0 0.0 0.00 0.00 0.00 63 1015.0
20260507033507 15 46 0.0 0.0 0.00 0.00 0.00 62 1014.9
20260507032507 15 46 0.0 0.0 0.00 0.00 0.00 61 1014.8
20260507032007 15 46 0.0 0.0 0.00 0.00 0.00 61 1014.8
20260507031506 15 39 0.0 0.0 0.00 0.00 0.00 61 1014.8
20260507031007 15 19 0.0 0.0 0.00 0.00 0.00 60 1014.8
20260507030506 15 18 0.0 0.0 0.00 0.00 0.00 60 1014.8
20260507030006 15 5 0.0 0.0 0.00 0.00 0.00 59 1014.7
20260507025507 15 5 0.0 0.0 0.00 0.00 0.00 59 1014.7
20260507025007 15 5 0.0 0.0 0.00 0.00 0.00 60 1014.7
20260507024507 15 5 0.0 0.0 0.00 0.00 0.00 60 1014.7
20260507024007 15 5 0.0 0.0 0.00 0.00 0.00 60 1014.6
20260507023507 15 5 0.0 0.0 0.00 0.00 0.00 61 1014.7
20260507022506 15 0 0.0 0.0 0.00 0.00 0.00 60 1014.6
20260507022007 15 355 0.0 0.0 0.00 0.00 0.00 60 1014.6
20260507021506 15 355 0.0 0.0 0.00 0.00 0.00 59 1014.6
20260507021007 15 257 0.0 0.0 0.00 0.00 0.00 59 1014.6